Wind_Speed
20 20 20 21 20 11 11 10 10 10 9 9 8 8 8 7 7 6 5 5 5 5 5 5 4 4 3 3 3 3 3 3 3 4 4 5 5 5 5 6 6 6 6 6 7 7 8 8 7
20 19 22 21 12 11 12 12 11 11 10 10 9 9 9 8 8 7 6 6 6 5 5 5 4 4 3 3 2 2 3 3 3 3 4 4 5 5 5 5 5 6 6 6 7 7 7 7 6
20 21 23 13 9 11 11 12 12 11 11 11 11 10 10 10 10 9 8 7 6 6 5 5 4 4 3 2 2 2 2 2 3 3 3 4 4 5 4 5 5 5 6 6 7 6 6 6 6
20 25 18 10 11 12 12 12 13 12 12 12 12 11 11 11 11 10 10 9 8 7 6 5 4 4 2 2 1 1 1 2 2 2 3 3 3 4 4 4 4 4 5 6 6 6 5 5 5
24 21 14 11 12 13 13 13 12 12 12 13 12 13 13 12 11 11 10 10 9 8 7 6 5 4 3 2 2 1 1 1 2 2 2 3 3 4 4 4 4 4 5 5 6 5 5 5 5
23 15 11 10 11 12 13 13 13 13 13 13 13 13 13 13 12 11 11 10 10 9 8 7 6 5 4 3 2 1 1 1 1 1 2 2 3 3 4 4 4 5 5 5 5 5 5 5 5
16 11 9 9 10 11 13 13 14 14 14 15 15 14 14 13 13 12 12 11 11 10 9 8 7 6 4 3 2 2 1 1 1 1 1 2 3 3 3 4 5 5 5 5 6 5 5 5 5
12 11 8 8 10 11 12 13 15 16 16 16 16 16 15 15 14 14 13 12 11 11 10 8 8 7 5 4 3 2 1 0 0 1 1 1 1 2 2 4 4 5 5 5 5 5 5 4 4
10 11 8 8 9 10 12 14 15 16 17 17 16 16 16 16 16 15 14 14 12 12 10 8 8 7 6 5 4 2 1 1 0 1 1 1 1 2 3 4 4 4 4 4 4 4 4 4 4
8 9 7 7 8 11 13 14 16 17 17 17 17 17 17 17 17 17 16 15 14 13 11 9 8 7 6 5 4 3 2 1 0 1 1 1 1 2 3 3 3 3 3 3 3 3 3 3 3
6 7 6 7 9 11 13 14 15 17 17 18 18 18 18 18 18 18 17 16 15 14 13 10 8 8 7 7 6 4 3 1 0 1 1 1 2 2 3 3 3 3 2 2 2 3 3 2 2
5 6 6 7 8 10 12 13 14 16 17 18 19 19 18 19 19 19 18 17 16 15 14 12 10 9 8 7 6 5 3 2 1 0 1 1 1 2 2 2 2 1 1 1 0 1 1 1 1
4 5 6 7 8 10 11 12 15 16 17 18 19 19 19 20 20 20 19 17 16 16 15 13 11 9 9 8 6 5 3 2 1 0 1 1 1 1 2 1 1 1 1 1 0 1 1 1 0
4 5 5 6 7 8 9 12 14 16 17 18 19 19 20 20 20 20 19 18 17 16 16 14 12 10 9 8 8 6 5 3 1 1 0 1 1 1 1 1 1 1 1 1 2 1 1 1 0
5 4 4 5 6 5 8 11 13 14 16 17 19 20 21 20 20 20 20 19 17 17 16 15 13 11 10 9 8 7 6 4 3 2 1 1 1 1 1 1 2 2 2 2 2 1 1 1 2
2 2 2 3 5 6 8 8 11 14 16 17 19 20 20 20 20 19 20 19 19 17 17 15 13 12 11 10 9 8 7 4 3 2 2 2 1 1 1 1 2 2 2 2 2 2 3 3 3
2 2 1 2 4 7 8 9 12 13 15 16 17 18 19 20 20 19 19 19 19 18 17 16 15 13 12 11 10 9 7 5 4 3 2 2 1 1 1 2 2 2 3 3 3 3 3 4 4
6 3 2 1 3 5 7 8 12 12 13 15 16 17 19 19 20 19 19 19 19 18 16 16 15 14 13 12 12 11 9 7 5 4 3 3 2 2 2 2 2 3 4 4 4 4 4 4 4
6 5 3 4 4 1 4 6 9 13 13 13 14 16 17 18 19 19 19 19 19 18 17 17 16 15 14 14 13 12 10 8 6 6 5 5 4 3 2 3 3 4 4 5 5 5 5 5 6
6 5 4 6 5 1 3 6 6 9 11 13 14 15 16 17 17 18 18 19 18 18 18 18 17 16 15 14 13 12 11 9 8 7 7 6 4 3 3 3 4 4 5 5 6 7 7 7 7
6 6 6 6 4 4 6 9 8 8 10 11 13 14 14 15 16 17 18 19 18 18 18 17 17 16 15 15 14 13 12 11 10 9 8 7 5 4 4 4 4 5 5 6 6 7 8 8 8
8 9 9 8 4 6 7 11 9 8 8 10 12 13 14 15 15 16 17 18 18 17 17 17 17 16 15 15 13 13 12 11 11 9 9 7 6 5 5 5 5 6 6 6 6 7 8 8 9
12 11 10 7 5 6 7 10 12 11 6 8 11 13 14 14 15 16 16 17 17 17 17 17 17 17 16 15 13 12 12 11 11 11 9 8 7 7 7 6 6 6 6 7 7 7 8 8 9
13 11 9 6 6 9 9 9 13 11 8 7 10 12 13 13 14 15 16 16 17 16 16 16 17 16 16 15 14 13 12 12 12 11 10 9 9 8 8 7 7 7 7 7 8 8 8 8 9
15 11 7 6 8 9 7 9 11 11 10 10 10 11 11 12 13 15 15 16 16 16 16 16 16 16 16 15 15 14 12 12 13 12 11 10 10 9 9 8 8 8 8 8 9 9 10 10 10
16 14 11 9 9 9 8 10 10 11 11 11 10 9 10 11 13 14 15 15 16 16 16 16 16 16 16 16 15 15 13 13 13 12 12 12 12 11 11 10 9 9 9 9 10 10 10 11 11
17 16 13 11 11 12 10 11 10 11 12 10 9 9 10 10 12 13 14 15 15 16 15 15 15 15 15 16 16 15 15 14 14 13 13 13 12 12 12 11 9 9 9 10 10 11 11 11 12
22 17 15 16 14 13 12 12 12 11 11 11 10 11 11 11 12 12 14 14 15 16 15 15 15 15 15 16 16 16 16 15 14 14 14 14 14 14 12 12 12 11 11 10 11 11 12 12 13
22 21 20 17 15 12 12 13 14 14 12 13 12 11 11 11 12 12 13 14 14 15 16 16 15 15 15 16 16 16 16 16 14 14 15 15 15 14 14 14 14 12 11 11 11 12 12 12 13
23 21 21 20 19 17 13 14 15 13 12 14 14 13 12 12 12 12 13 13 14 15 16 16 16 16 16 16 17 17 18 17 16 15 15 16 15 15 15 14 14 13 13 12 13 13 13 13 14
Wind_Direction
73 73 69 62 60 57 59 58 56 58 59 61 58 54 52 48 43 42 40 45 51 54 59 59 56 57 62 63 59 75 95 105 107 116 118 115 115 117 116 114 115 116 115 111 106 102 99 94 92
75 73 66 61 54 48 52 54 56 58 58 57 56 55 53 51 50 48 44 46 50 50 51 50 48 43 44 47 52 77 93 105 115 123 123 120 118 120 115 113 115 115 115 111 102 96 96 96 92
77 71 67 58 48 51 51 52 52 53 54 54 54 52 51 51 51 49 48 47 46 44 42 40 36 33 33 30 39 64 84 103 117 123 126 125 124 123 118 110 109 110 109 105 99 97 100 98 95
76 69 67 55 49 52 50 49 48 48 48 51 52 51 50 50 51 51 50 46 44 42 40 35 29 25 20 16 24 47 76 102 112 111 116 124 127 127 121 116 114 108 110 107 102 98 102 98 96
71 69 59 45 47 49 52 50 46 44 45 48 51 51 49 49 49 49 49 45 45 43 39 33 24 18 10 4 9 22 50 93 107 104 103 119 128 125 122 124 127 118 114 115 111 103 103 101 102
68 67 52 43 49 49 49 49 47 45 46 47 50 48 48 48 47 46 45 43 41 42 37 33 28 19 12 6 3 357 13 71 114 108 103 111 122 124 122 123 121 119 116 115 113 110 111 107 105
73 71 53 39 46 52 51 49 47 45 49 48 48 47 46 46 44 43 41 38 39 38 36 31 30 24 20 13 2 353 355 48 97 113 114 109 117 123 135 132 119 116 116 114 110 110 111 106 104
82 77 58 43 48 51 53 51 47 45 46 46 45 45 46 47 44 42 39 36 37 36 37 34 30 29 29 24 17 7 348 11 133 151 118 109 112 124 129 137 121 116 116 115 110 109 105 102 102
76 85 68 48 48 51 54 53 49 47 46 46 46 45 45 45 43 42 39 36 35 34 36 34 39 34 30 26 21 12 351 315 180 160 150 131 148 130 131 125 117 112 111 114 111 106 102 102 100
76 83 78 59 53 56 51 48 43 45 46 45 45 45 45 44 42 40 39 36 34 33 31 31 31 32 28 20 18 16 13 340 175 168 181 159 142 135 131 122 117 113 106 108 107 97 99 103 99
84 82 71 65 61 58 54 49 42 40 42 42 42 42 43 42 42 40 38 35 32 30 28 26 25 28 27 19 16 13 5 16 81 182 196 171 155 145 133 124 118 113 107 108 104 98 106 102 110
88 91 79 72 66 60 57 53 47 41 42 42 42 41 41 40 40 38 36 33 30 27 25 24 24 24 25 20 13 12 5 1 7 202 200 192 180 172 161 152 129 133 124 111 126 98 120 120 111
99 91 78 71 69 68 66 52 41 39 40 41 41 41 40 39 37 37 35 32 30 27 25 25 27 26 27 22 16 14 10 351 342 63 172 188 198 199 183 157 173 174 205 242 271 204 137 127 81
129 100 74 60 54 59 60 48 37 34 34 38 39 40 40 38 36 34 32 30 29 26 24 23 23 24 22 21 19 18 20 11 18 51 32 205 206 212 205 230 254 271 298 274 274 231 178 198 233
132 118 93 38 29 28 51 42 29 29 26 32 36 37 37 35 34 33 31 30 28 26 24 22 22 21 19 18 17 14 19 18 21 10 358 353 234 228 247 263 271 285 301 296 276 250 248 258 274
119 140 124 41 4 358 28 35 27 23 19 26 31 33 32 31 29 30 29 28 26 25 25 25 23 22 19 17 20 18 17 24 30 16 12 12 2 234 271 281 271 271 287 287 271 259 258 271 285
244 249 180 24 348 346 5 16 21 19 16 19 22 27 26 26 25 24 23 23 23 23 24 24 24 24 24 24 23 23 23 28 33 28 16 358 337 293 289 293 266 269 282 281 271 268 269 272 276
198 233 208 236 307 340 343 3 6 11 14 13 14 19 19 20 21 20 19 19 19 19 20 20 21 23 25 24 23 23 23 25 26 25 14 5 356 330 309 307 292 280 281 279 274 272 278 276 274
193 211 203 239 264 308 326 338 351 360 5 6 8 11 13 15 15 17 17 18 17 17 20 20 19 20 20 20 22 21 23 25 24 21 17 6 357 343 327 307 304 299 296 289 284 282 280 280 282
191 201 220 261 275 255 289 291 326 344 355 357 1 5 7 9 10 12 14 16 16 15 17 18 19 20 20 21 22 22 21 22 21 18 16 11 5 349 331 320 305 306 306 302 295 289 288 284 284
191 212 221 238 263 294 279 280 297 315 340 349 351 355 1 5 9 11 13 13 14 15 16 18 19 19 20 20 20 20 20 20 19 15 12 12 10 1 336 324 315 309 310 312 308 298 294 291 289
211 223 225 231 252 274 279 281 287 306 329 344 348 352 358 2 9 9 11 12 14 15 16 16 17 17 18 17 16 16 16 14 13 9 6 5 3 353 340 323 314 310 309 313 313 306 301 299 296
211 220 220 225 239 272 283 291 301 304 323 346 346 348 354 359 4 6 7 8 11 12 13 15 16 16 16 15 13 13 13 12 9 5 3 0 357 351 342 332 321 310 307 309 310 310 306 307 306
212 221 219 217 238 259 269 287 295 308 327 330 331 339 348 355 359 2 3 5 7 7 9 11 13 14 15 14 12 11 11 10 7 6 3 360 356 350 341 329 323 316 308 306 307 306 307 306 304
212 215 226 251 259 260 259 267 282 304 315 316 323 330 337 350 356 359 1 1 2 4 5 7 10 12 12 10 9 8 7 4 3 2 1 358 353 346 338 327 318 314 308 303 301 301 304 302 301
220 209 211 240 259 263 241 248 269 285 295 305 315 326 332 344 352 354 357 359 360 1 1 4 6 8 7 7 6 5 4 1 359 358 357 356 352 347 338 329 318 311 309 304 301 300 301 301 300
217 217 212 238 264 271 259 250 261 283 296 299 309 322 325 336 344 347 351 355 356 358 359 359 2 3 3 3 3 2 2 359 357 354 355 354 350 346 341 333 326 317 311 307 305 302 303 301 299
212 214 219 228 244 254 263 266 268 274 291 298 302 312 321 327 337 343 343 347 352 354 355 356 358 360 359 360 1 2 0 356 354 353 350 347 345 344 338 335 330 318 312 308 306 304 304 301 301
218 214 214 223 230 246 263 262 261 261 277 289 299 306 314 322 329 334 339 342 346 349 352 355 356 357 356 357 358 358 355 353 349 346 345 343 342 340 336 335 333 323 317 310 306 305 305 303 303
221 222 222 225 228 229 249 274 272 269 281 284 289 293 302 310 316 324 332 337 340 343 345 351 355 354 352 351 352 351 348 347 345 342 342 344 342 340 338 334 334 326 319 314 309 307 306 303 302
Height
5908 5907 5906 5904 5905 5907 5905 5904 5902 5901 5899 5898 5897 5896 5894 5894 5894 5895 5892 5890 5890 5889 5889 5889 5888 5888 5888 5888 5888 5887 5887 5887 5887 5887 5887 5887 5887 5887 5887 5887 5888 5888 5888 5889 5889 5889 5890 5890 5891
5911 5910 5907 5908 5911 5909 5907 5906 5905 5903 5902 5900 5898 5897 5896 5895 5894 5894 5892 5891 5891 5891 5890 5890 5890 5890 5889 5889 5889 5889 5888 5888 5888 5888 5888 5888 5888 5888 5888 5888 5889 5889 5890 5890 5890 5890 5891 5892 5892
5914 5912 5910 5915 5914 5912 5911 5909 5907 5905 5904 5902 5901 5900 5898 5897 5896 5895 5894 5893 5892 5892 5891 5891 5891 5891 5890 5890 5890 5890 5889 5889 5889 5889 5889 5889 5889 5889 5889 5889 5890 5890 5891 5891 5891 5892 5892 5893 5893
5916 5914 5917 5919 5916 5914 5913 5911 5909 5908 5906 5904 5903 5901 5899 5898 5897 5896 5895 5894 5893 5893 5892 5892 5892 5891 5891 5891 5891 5890 5890 5890 5890 5890 5890 5890 5890 5890 5890 5891 5891 5892 5892 5892 5893 5893 5894 5894 5894
5916 5919 5922 5921 5919 5918 5916 5914 5912 5910 5908 5906 5905 5903 5901 5900 5899 5897 5896 5895 5895 5894 5893 5893 5892 5892 5892 5892 5891 5891 5891 5891 5891 5891 5891 5891 5891 5891 5891 5892 5892 5893 5893 5893 5894 5894 5895 5895 5895
5921 5926 5926 5924 5922 5921 5919 5917 5915 5912 5910 5908 5906 5905 5904 5902 5901 5899 5898 5897 5896 5895 5894 5894 5893 5893 5893 5892 5892 5892 5892 5892 5892 5892 5892 5892 5892 5892 5892 5893 5893 5893 5894 5894 5895 5895 5896 5896 5896
5926 5929 5929 5927 5925 5924 5922 5920 5917 5915 5913 5911 5909 5907 5906 5904 5903 5901 5900 5899 5898 5897 5896 5895 5895 5894 5893 5893 5893 5893 5893 5893 5893 5893 5893 5893 5893 5893 5893 5894 5894 5894 5895 5896 5896 5896 5896 5897 5897
5930 5934 5932 5930 5928 5927 5925 5922 5920 5918 5916 5914 5912 5910 5908 5907 5905 5903 5902 5901 5899 5898 5897 5897 5896 5895 5895 5894 5894 5893 5893 5893 5893 5893 5893 5894 5894 5894 5894 5894 5895 5895 5896 5897 5897 5897 5897 5898 5898
5934 5937 5935 5934 5932 5930 5927 5925 5923 5921 5919 5917 5916 5914 5912 5909 5907 5906 5904 5903 5901 5900 5899 5898 5897 5897 5896 5895 5895 5894 5894 5894 5894 5894 5895 5895 5895 5895 5895 5896 5896 5897 5897 5897 5898 5898 5898 5899 5899
5938 5939 5938 5936 5934 5932 5930 5928 5926 5923 5922 5920 5918 5916 5914 5912 5910 5908 5906 5905 5903 5902 5901 5900 5899 5898 5897 5897 5896 5895 5895 5895 5895 5895 5895 5895 5896 5896 5897 5897 5897 5898 5898 5898 5899 5899 5899 5899 5900
5941 5941 5940 5939 5937 5935 5933 5931 5929 5927 5925 5923 5921 5919 5916 5914 5912 5910 5909 5907 5905 5904 5903 5901 5900 5899 5898 5897 5897 5896 5896 5895 5895 5896 5896 5896 5896 5897 5897 5898 5898 5899 5899 5899 5899 5900 5900 5900 5901
5944 5943 5942 5941 5939 5938 5936 5935 5933 5931 5929 5926 5924 5921 5919 5917 5914 5912 5911 5909 5907 5906 5904 5903 5902 5901 5899 5899 5898 5897 5896 5896 5896 5896 5896 5897 5897 5897 5898 5899 5899 5899 5900 5900 5900 5900 5901 5901 5901
5946 5945 5944 5942 5941 5940 5938 5937 5935 5933 5931 5929 5926 5924 5921 5919 5917 5915 5913 5911 5910 5908 5906 5904 5903 5902 5901 5900 5899 5898 5897 5896 5896 5897 5897 5897 5898 5898 5899 5899 5899 5900 5900 5900 5901 5901 5901 5901 5902
5947 5947 5946 5945 5944 5942 5940 5939 5938 5935 5934 5931 5929 5926 5923 5921 5919 5917 5916 5914 5911 5910 5908 5906 5904 5903 5902 5900 5899 5898 5897 5897 5897 5897 5897 5898 5898 5898 5899 5899 5900 5900 5900 5901 5901 5901 5901 5902 5902
5947 5947 5947 5947 5946 5943 5942 5941 5939 5938 5936 5933 5931 5928 5926 5924 5922 5920 5918 5916 5914 5912 5909 5907 5905 5904 5903 5901 5900 5899 5898 5897 5897 5898 5898 5898 5898 5899 5899 5899 5900 5900 5900 5900 5901 5901 5901 5902 5902
5948 5949 5949 5949 5948 5945 5946 5944 5941 5940 5938 5935 5933 5931 5929 5927 5925 5922 5920 5918 5916 5913 5911 5909 5907 5905 5904 5902 5901 5900 5899 5898 5898 5898 5898 5898 5898 5899 5899 5900 5900 5900 5900 5900 5901 5901 5901 5901 5901
5950 5950 5950 5950 5949 5948 5947 5945 5943 5942 5940 5937 5935 5933 5931 5929 5927 5924 5922 5919 5917 5915 5913 5911 5909 5907 5905 5904 5902 5901 5900 5900 5899 5899 5899 5899 5899 5899 5899 5900 5900 5900 5900 5900 5900 5900 5901 5901 5901
5950 5951 5951 5952 5952 5950 5948 5946 5945 5944 5941 5939 5936 5934 5933 5931 5929 5926 5923 5921 5919 5917 5915 5913 5910 5908 5907 5905 5904 5903 5901 5901 5900 5900 5899 5899 5899 5899 5899 5899 5899 5900 5900 5900 5900 5900 5900 5900 5900
5951 5952 5952 5953 5952 5952 5951 5949 5948 5946 5944 5941 5939 5936 5935 5932 5930 5928 5925 5923 5921 5918 5916 5914 5912 5910 5908 5907 5905 5904 5903 5902 5901 5900 5900 5899 5899 5899 5899 5899 5899 5899 5899 5899 5899 5899 5899 5899 5899
5951 5953 5954 5954 5952 5952 5952 5950 5948 5947 5945 5943 5941 5938 5936 5934 5931 5929 5927 5925 5922 5920 5918 5916 5914 5911 5910 5908 5907 5905 5904 5903 5902 5901 5900 5900 5899 5899 5899 5899 5899 5899 5899 5899 5898 5898 5898 5898 5898
5951 5953 5953 5954 5953 5953 5953 5951 5949 5947 5945 5944 5942 5940 5937 5935 5933 5930 5928 5926 5923 5921 5919 5917 5915 5913 5911 5909 5908 5907 5905 5904 5903 5902 5901 5900 5899 5899 5899 5898 5898 5898 5898 5898 5898 5897 5897 5897 5897
5951 5951 5951 5952 5952 5952 5953 5950 5947 5945 5945 5943 5942 5940 5938 5936 5934 5932 5930 5927 5925 5923 5921 5918 5916 5914 5912 5910 5909 5908 5906 5905 5904 5902 5901 5900 5899 5899 5898 5898 5897 5897 5897 5897 5896 5896 5895 5895 5895
5948 5949 5950 5951 5952 5952 5952 5951 5947 5944 5943 5943 5943 5941 5939 5937 5935 5933 5931 5929 5927 5925 5922 5920 5918 5916 5914 5912 5910 5909 5907 5906 5904 5903 5901 5900 5899 5899 5898 5897 5897 5897 5896 5896 5895 5895 5894 5894 5893
5945 5947 5948 5949 5951 5952 5951 5952 5947 5943 5942 5943 5944 5943 5941 5939 5937 5935 5932 5930 5928 5926 5924 5922 5919 5917 5915 5913 5911 5909 5908 5906 5905 5903 5902 5900 5899 5898 5897 5896 5896 5895 5895 5895 5894 5894 5893 5892 5892
5943 5946 5948 5949 5951 5951 5951 5951 5949 5946 5945 5944 5944 5943 5941 5940 5938 5936 5934 5931 5929 5927 5925 5923 5920 5918 5916 5914 5912 5910 5908 5907 5905 5903 5902 5900 5899 5898 5897 5895 5895 5894 5893 5893 5892 5892 5891 5890 5890
5941 5944 5947 5949 5950 5949 5949 5949 5948 5946 5945 5944 5944 5943 5941 5940 5938 5936 5934 5932 5930 5928 5926 5923 5921 5919 5917 5915 5913 5911 5909 5907 5905 5903 5902 5900 5899 5897 5896 5894 5893 5892 5892 5891 5890 5890 5889 5888 5888
5939 5941 5945 5948 5948 5948 5947 5946 5945 5945 5944 5944 5943 5942 5940 5939 5938 5937 5935 5933 5931 5928 5926 5924 5922 5920 5918 5916 5914 5911 5909 5907 5905 5903 5902 5900 5898 5897 5895 5893 5892 5891 5890 5889 5888 5887 5887 5886 5885
5935 5939 5943 5944 5946 5946 5946 5945 5944 5943 5943 5943 5942 5941 5939 5938 5938 5936 5934 5933 5931 5929 5927 5925 5922 5920 5919 5917 5914 5912 5909 5907 5905 5903 5901 5899 5898 5896 5894 5893 5891 5889 5888 5887 5886 5885 5885 5884 5883
5931 5935 5938 5941 5943 5945 5945 5944 5941 5940 5941 5941 5940 5940 5939 5938 5937 5935 5934 5932 5931 5929 5927 5925 5923 5921 5919 5917 5915 5912 5910 5907 5905 5903 5900 5899 5897 5895 5893 5891 5889 5887 5886 5885 5884 5883 5882 5881 5880
5928 5931 5935 5937 5939 5941 5942 5943 5937 5937 5939 5940 5938 5937 5936 5936 5935 5934 5933 5932 5930 5929 5926 5925 5923 5921 5919 5917 5914 5912 5909 5907 5904 5902 5899 5897 5895 5894 5892 5890 5888 5885 5884 5883 5881 5880 5879 5878 5877